This demonstration page uses our WeatherBlox Daily Observations layout. Learn more.

Left ArrowRight Arrow

Hourly Observations for January 25, 2015

Temp ( °F °C ) Dew Point ( °F °C ) Humidity (%) Winds ( mph kmh ) Pressure ( in mb ) Visibility ( mi km ) Precip ( " mm )
12:16 am 00:16 Clear 32 0 28 -2 87 87 SSW 6 9 29.8 1009 10 16.0934 N/A
12:35 am 00:35 Clear 34 1 30 -1 87 87 SSW 3 6 29.74 1007 10 16.0934 N/A
12:55 am 00:55 Clear 34 1 30 -1 87 87 S 5 7 29.74 1007 10 16.0934 N/A
1:16 am 01:16 Clear 34 1 30 -1 87 87 S 5 7 29.74 1007 10 16.0934 N/A
1:35 am 01:35 Clear 34 1 32 0 93 93 S 3 6 29.74 1007 10 16.0934 N/A
1:56 am 01:56 Clear 32 0 32 0 100 100 S 5 7 29.77 1008 7 11.26538 N/A
2:15 am 02:15 Clear 32 0 32 0 100 100 S 5 7 29.77 1008 7 11.26538 N/A
2:35 am 02:35 Clear 32 0 32 0 100 100 SSE 5 7 29.77 1008 10 16.0934 N/A
2:56 am 02:56 Clear 32 0 32 0 100 100 S 7 11 29.77 1008 7 11.26538 N/A
3:15 am 03:15 Clear 32 0 32 0 100 100 S 6 9 29.77 1008 7 11.26538 N/A
3:35 am 03:35 Clear 34 1 32 0 93 93 S 7 11 29.74 1007 7 11.26538 N/A
3:55 am 03:55 Clear 34 1 30 -1 87 87 SSE 6 9 29.74 1007 10 16.0934 N/A
4:15 am 04:15 Clear 34 1 30 -1 87 87 SSE 3 6 29.74 1007 10 16.0934 N/A
4:36 am 04:36 Clear 34 1 30 -1 87 87 S 5 7 29.71 1006 10 16.0934 N/A
4:55 am 04:55 Clear 34 1 30 -1 87 87 SSE 6 9 29.71 1006 10 16.0934 N/A
5:16 am 05:16 Clear 34 1 30 -1 87 87 SSE 6 9 29.71 1006 10 16.0934 N/A
5:35 am 05:35 Clear 34 1 30 -1 87 87 SSE 6 9 29.71 1006 7 11.26538 N/A
5:55 am 05:55 Clear 34 1 30 -1 87 87 S 6 9 29.71 1006 10 16.0934 N/A
6:16 am 06:16 Clear 34 1 28 -2 81 81 SSE 6 9 29.71 1006 10 16.0934 N/A
6:35 am 06:35 Clear 34 1 28 -2 81 81 SSE 5 7 29.71 1006 10 16.0934 N/A
6:55 am 06:55 Clear 34 1 28 -2 81 81 SSE 6 9 29.71 1006 10 16.0934 N/A
7:15 am 07:15 Clear 34 1 28 -2 81 81 SSE 5 7 29.71 1006 10 16.0934 N/A
7:35 am 07:35 Clear 34 1 28 -2 81 81 SE 6 9 29.71 1006 10 16.0934 N/A
7:56 am 07:56 Clear 34 1 28 -2 81 81 SSE 5 7 29.71 1006 10 16.0934 N/A
8:15 am 08:15 Sunny 34 1 28 -2 81 81 SE 3 6 29.71 1006 10 16.0934 N/A
8:35 am 08:35 Mostly Cloudy 34 1 28 -2 81 81 E 5 7 29.71 1006 7 11.26538 N/A
8:56 am 08:56 Cloudy 34 1 30 -1 87 87 SSE 5 7 29.71 1006 7 11.26538 N/A
9:15 am 09:15 Cloudy 34 1 32 0 93 93 SE 5 7 29.71 1006 5 8.0467 N/A
9:35 am 09:35 Cloudy 34 1 34 1 100 100 E 6 9 29.74 1007 5 8.0467 N/A
9:55 am 09:55 Cloudy 36 2 36 2 100 100 E 8 13 29.71 1006 5 8.0467 N/A
10:15 am 10:15 Cloudy 36 2 36 2 100 100 ESE 7 11 29.71 1006 5 8.0467 N/A
10:36 am 10:36 Cloudy 36 2 36 2 100 100 ESE 8 13 29.71 1006 5 8.0467 N/A
10:55 am 10:55 Cloudy 36 2 36 2 100 100 E 8 13 29.71 1006 4 6.43736 N/A
11:15 am 11:15 Partly Cloudy 36 2 N/A N/A ESE 7 11 29.71 1006 5 8.0467 N/A
11:35 am 11:35 Sunny 36 2 36 2 100 100 ESE 7 11 29.71 1006 5 8.0467 N/A
11:55 am 11:55 Mostly Cloudy 36 2 36 2 100 100 ESE 8 13 29.71 1006 5 8.0467 N/A
12:16 pm 12:16 Mostly Cloudy 36 2 36 2 100 100 ESE 7 11 29.71 1006 5 8.0467 N/A
12:35 pm 12:35 Mostly Cloudy 36 2 36 2 100 100 ESE 7 11 29.71 1006 5 8.0467 N/A
12:55 pm 12:55 Mostly Cloudy 36 2 36 2 100 100 SE 7 11 29.71 1006 5 8.0467 N/A
1:15 pm 13:15 Cloudy 36 2 36 2 100 100 ESE 6 9 29.68 1005 5 8.0467 N/A
1:35 pm 13:35 Cloudy 36 2 36 2 100 100 E 7 11 29.68 1005 4 6.43736 N/A
1:56 pm 13:56 Cloudy 36 2 N/A N/A ENE 8 13 29.68 1005 3 4.82802 N/A
2:15 pm 14:15 Cloudy 36 2 N/A N/A E 6 9 29.68 1005 3 4.82802 N/A
2:35 pm 14:35 Cloudy 36 2 N/A N/A ENE 7 11 29.68 1005 3 4.82802 N/A
2:55 pm 14:55 Cloudy 34 1 N/A N/A ENE 8 13 29.68 1005 2.5 4.02335 N/A
3:15 pm 15:15 Cloudy 34 1 N/A N/A ENE 8 13 29.68 1005 2 3.21868 N/A
3:36 pm 15:36 Cloudy 34 1 N/A N/A ENE 10 17 29.68 1005 1.75 2.816345 N/A
3:55 pm 15:55 Cloudy 34 1 N/A N/A ENE 9 15 29.68 1005 1.75 2.816345 N/A
4:15 pm 16:15 Cloudy 34 1 N/A N/A ENE 9 15 29.68 1005 1.75 2.816345 N/A
4:35 pm 16:35 Cloudy 34 1 N/A N/A NE 10 17 29.68 1005 1.75 2.816345 N/A
4:55 pm 16:55 Cloudy 34 1 N/A N/A NE 10 17 29.71 1006 2 3.21868 N/A
5:16 pm 17:16 Cloudy 34 1 N/A N/A NE 12 19 29.71 1006 2.5 4.02335 N/A
5:35 pm 17:35 Cloudy 34 1 N/A N/A NE 13 20 29.71 1006 3 4.82802 N/A
5:55 pm 17:55 Cloudy 32 0 N/A N/A NE 15 24 29.77 1008 4 6.43736 N/A
6:15 pm 18:15 Cloudy 32 0 N/A N/A NE 20 31 29.77 1008 3 4.82802 N/A
6:35 pm 18:35 Cloudy 30 -1 30 -1 100 100 NNE 21 33 29.8 1009 3 4.82802 N/A
6:55 pm 18:55 Cloudy 28 -2 28 -2 100 100 NE 20 31 29.8 1009 4 6.43736 N/A
7:15 pm 19:15 Cloudy 28 -2 27 -3 93 93 NE 18 30 29.8 1009 7 11.26538 N/A
7:35 pm 19:35 Cloudy 28 -2 28 -2 100 100 NE 20 31 29.83 1010 4 6.43736 N/A
7:55 pm 19:55 Cloudy 27 -3 27 -3 100 100 NNE 21 33 29.83 1010 5 8.0467 N/A
8:15 pm 20:15 Cloudy 27 -3 25 -4 93 93 NE 17 28 29.83 1010 3 4.82802 N/A
8:35 pm 20:35 Cloudy 25 -4 25 -4 100 100 NNE 17 28 29.85 1011 3 4.82802 N/A
8:56 pm 20:56 Cloudy 25 -4 23 -5 93 93 NNE 18 30 29.85 1011 4 6.43736 N/A
9:15 pm 21:15 Cloudy 25 -4 21 -6 86 86 NNE 17 28 29.85 1011 4 6.43736 N/A
9:35 pm 21:35 Cloudy 23 -5 19 -7 86 86 NE 20 31 29.85 1011 4 6.43736 N/A
9:56 pm 21:56 Cloudy 23 -5 18 -8 80 80 NNE 21 33 29.85 1011 5 8.0467 N/A
10:15 pm 22:15 Cloudy 23 -5 16 -9 74 74 NNE 17 28 29.85 1011 7 11.26538 N/A
10:35 pm 22:35 Cloudy 23 -5 16 -9 74 74 NNE 15 24 29.88 1012 10 16.0934 N/A
10:55 pm 22:55 Cloudy 23 -5 14 -10 68 68 NNE 18 30 29.88 1012 10 16.0934 N/A
11:15 pm 23:15 Cloudy 23 -5 14 -10 68 68 NNE 16 26 29.88 1012 10 16.0934 N/A
11:35 pm 23:35 Cloudy 21 -6 14 -10 74 74 NNE 21 33 29.88 1012 10 16.0934 N/A
11:56 pm 23:56 Cloudy 23 -5 14 -10 68 68 NNE 17 28 29.88 1012 10 16.0934 N/A

Powered by AerisWeather